Location: Columbia
(38.9520°N, 92.3340°W)
Time: 19:59:21
(UTC-05:00)

Iridium 15 - Visible Passes

Search period start: 04 May 2016 00:00
Search period end: 14 May 2016 00:00
Orbit: 776 x 779 km, 86.4° (Epoch: 04 May)

Date Brightness Start Highest point End Pass type
(mag) Time Alt. Az. Time Alt. Az. Time Alt. Az.
04 May 6.5 22:54:25 49° NE 22:54:25 49° NE 22:58:43 10° NNE visible
05 May 8.3 00:34:51 16° WNW 00:34:51 16° WNW 00:37:55 10° NW visible
05 May 7.1 22:20:41 28° ENE 22:20:41 28° ENE 22:24:43 10° NNE visible
06 May 7.5 00:01:08 29° WNW 00:01:08 29° WNW 00:05:27 10° NNW visible
06 May 7.7 21:46:57 16° E 21:47:04 16° E 21:50:05 10° NE visible
06 May 6.5 23:27:24 55° WNW 23:27:24 55° WNW 23:32:22 10° N visible
07 May 5.9 22:53:38 79° E 22:53:42 79° E 22:58:56 10° N visible
08 May 8.6 00:34:05 10° W 00:35:02 11° WNW 00:36:20 10° WNW visible
08 May 6.4 22:19:52 41° E 22:20:16 42° E 22:25:10 10° NNE visible
09 May 8.0 00:00:19 20° W 00:01:09 21° WNW 00:05:01 10° NNW visible
09 May 7.3 21:46:04 22° E 21:46:59 23° E 21:50:58 10° NNE visible
09 May 7.1 23:26:31 35° WSW 23:27:24 37° W 23:32:15 10° NNW visible
10 May 7.9 21:12:16 11° E 21:13:48 12° ENE 21:15:43 10° NE visible
10 May 6.1 22:52:43 54° SSW 22:53:48 71° W 22:59:01 10° N visible
11 May 6.0 22:18:53 44° SE 22:20:18 62° E 22:25:27 10° N visible
11 May 8.4 23:59:19 11° W 00:01:28 14° WNW 00:04:12 10° NW visible
12 May 6.8 21:45:03 25° ESE 21:46:56 33° E 21:51:32 10° NNE visible
12 May 7.8 23:25:28 20° WSW 23:27:38 26° W 23:31:58 10° NNW visible
13 May 7.6 21:11:10 13° ESE 21:13:40 18° E 21:17:05 10° NE visible
13 May 6.8 22:51:36 29° SW 22:53:56 48° W 22:58:59 10° N visible
